Meteo Giornale » Osservazioni meteo Svezia » Ljungbyhed

ore: 15:50 - Osservazioni Meteo Ljungbyhed
Lat. 56° 4' N Lon. 13° 12' E Alt. 43 metri s.l.m.

nuvoloso

19 °C

Nuvoloso

Temp. 24 Ore

14 °C

20 °C

Ovest/Nord-Ovest

20.3 Km/h

Dew point 13 °C

Umidità 68 %

Visibilità  10 Km

Il sole sorge alle ore 06:11

Il sole tramonta alle ore 20:02

Data e Ora Cielo e Fenomeni T °C DP °C Um. % Pres. hPa Vis. km Vento km/h
Oggi h: 15:50 nuvoloso Nuvoloso 19 13 68 1012 10 O/NO 20.3
Oggi h: 15:20 molto_nuvoloso Molto Nuvoloso 19 14 72 1012 10 O/NO 24
Oggi h: 14:50 molto_nuvoloso Molto Nuvoloso 20 14 68 1012 10 NO 20.3
Oggi h: 14:20 molto_nuvoloso Molto Nuvoloso 20 15 72 1012 10 O/NO 22.2
Oggi h: 13:50 molto_nuvoloso Molto Nuvoloso 19 15 77 1012 10 O/NO 25.9
Oggi h: 13:20 molto_nuvoloso Molto Nuvoloso 19 14 72 1011 10 O 24
Oggi h: 12:50 molto_nuvoloso Molto Nuvoloso 19 14 72 1011 10 O/NO 22.2
Oggi h: 12:20 molto_nuvoloso Molto Nuvoloso 18 15 82 1011 10 O/NO 24
Oggi h: 11:50 molto_nuvoloso Molto Nuvoloso 17 15 88 1011 10 O 24
Oggi h: 11:20 molto_nuvoloso Molto Nuvoloso 18 15 82 1010 10 O 18.5
Oggi h: 10:50 molto_nuvoloso Molto Nuvoloso 18 16 88 1010 10 O/NO 18.5
Oggi h: 10:20 coperto Coperto 18 16 88 1010 10 O/NO 14.8
Oggi h: 09:50 coperto_pioggia Pioggia 17 15 88 1010 10 O/NO 11.1
Oggi h: 09:20 nuvoloso Nuvoloso 17 15 88 1009 10 O 11.1
Oggi h: 08:50 molto_nuvoloso Molto Nuvoloso 17 15 88 1009 10 O 13
Oggi h: 08:20 molto_nuvoloso Molto Nuvoloso 16 15 93 1009 10 O 7.4
Oggi h: 07:50 molto_nuvoloso Molto Nuvoloso 15 15 100 1009 10 O/SO 9.3
Oggi h: 07:20 coperto Coperto 15 15 100 1009 10 O/SO 9.3
Oggi h: 06:50 coperto Coperto 15 15 100 1009 10 N 5.5
Oggi h: 06:20 coperto Coperto 15 15 100 1009 10 N 5.5
Oggi h: 05:50 coperto Coperto 15 15 100 1009 10 O/SO 11.1
Oggi h: 05:20 molto_nuvoloso Molto Nuvoloso 15 14 93 1008 10 O/SO 9.3
Oggi h: 04:50 sereno Sereno 15 14 93 1008 10 O/SO 9.3
Oggi h: 04:20 poco_nuvoloso Poco Nuvoloso 15 15 100 1008 10 SO 11.1
Oggi h: 03:50 poco_nuvoloso Poco Nuvoloso 15 14 93 1008 10 SO 9.3
Oggi h: 03:20 poco_nuvoloso Poco Nuvoloso 14 14 100 1008 10 SO 7.4
Oggi h: 02:50 molto_nuvoloso Molto Nuvoloso 14 14 100 1008 9 N 0
Oggi h: 02:20 molto_nuvoloso Molto Nuvoloso 15 15 100 1008 7 N 0
Oggi h: 01:50 nuvoloso Nuvoloso 15 14 93 1008 10 N 5.5
Oggi h: 01:20 coperto Coperto 15 14 93 1008 10 N 5.5
Oggi h: 00:50 coperto Coperto 15 14 93 1008 10 N 3.7
Oggi h: 00:20 coperto Coperto 15 14 93 1008 10 N 3.7
Ieri h: 23:50 molto_nuvoloso Molto Nuvoloso 14 14 100 1008 10 N 5.5
Ieri h: 23:20 poco_nuvoloso Poco Nuvoloso 15 14 93 1008 10 S 9.3
Ieri h: 22:50 coperto Coperto 15 14 93 1008 10 S/SO 11.1
Ieri h: 22:20 molto_nuvoloso Molto Nuvoloso 15 13 87 1008 10 S/SO 7.4
Ieri h: 21:50 nuvoloso Nuvoloso 16 14 87 1008 10 N 3.7
Ieri h: 21:20 sereno Sereno 16 14 87 1007 10 N 5.5
Ieri h: 20:50 sereno Sereno 16 14 87 1007 10 N 3.7
Ieri h: 20:20 molto_nuvoloso Molto Nuvoloso 17 15 88 1007 10 N 1.8
Ieri h: 19:50 molto_nuvoloso Molto Nuvoloso 18 16 88 1007 10 O/SO 11.1
Ieri h: 19:20 molto_nuvoloso Molto Nuvoloso 19 16 82 1007 10 S/SO 9.3
Ieri h: 18:50 coperto_pioggia Pioggia 18 16 88 1007 10 S 9.3
Ieri h: 18:20 coperto_pioggia Pioggia 18 16 88 1007 10 SO 9.3
Ieri h: 17:50 molto_nuvoloso Molto Nuvoloso 19 15 77 1007 10 SO 9.3
Ieri h: 17:20 coperto Coperto 19 17 88 1007 10 SO 7.4
Ieri h: 16:50 coperto_pioggia Pioviggine 19 16 82 1007 10 SO 9.3